Location: *
(49.3500°N, 12.6000°E)
Time: 19:57:37
(UTC+00:00)

COSMO-SKYMED 1 - Pass Details

Date: 18 October 2019
Orbit: 621 x 623 km, 97.9° (Epoch: 20 November)

Event Time Altitude Azimuth Distance (km) Brightness Sun altitude
Rises 17:31:09 0° 12° (NNE) 2,917 5.9 -13.3°
Reaches altitude 10° 17:33:21 10° 12° (NNE) 2,005 5.1 -13.6°
Maximum altitude 17:37:43 81° 285° (WNW) 637 2.7 -14.3°
Drops below altitude 10° 17:42:02 10° 199° (SSW) 1,988 5.4 -15.0°
Sets 17:44:13 0° 198° (SSW) 2,889 6.2 -15.4°
